This demonstration page uses our WeatherBlox Daily Observations layout. Learn more.

Left ArrowRight Arrow

Hourly Observations for March 10, 2022

Temp ( °F °C ) Dew Point ( °F °C ) Humidity (%) Winds ( mph kmh ) Pressure ( in mb ) Visibility ( mi km ) Precip ( " mm )
12:59 am 00:59 Mostly Cloudy 46 7.8 37 2.8 71 71 N 15 24 30.08 1019 10 16 0.00 0.00
1:59 am 01:59 Mostly Cloudy 46 7.8 36 2.2 68 68 N 13 20 30.08 1019 10 16 0.00 0.00
2:59 am 02:59 Mostly Cloudy 45 7.2 38 3.3 77 77 NNE 13 20 30.08 1019 10 16 0.00 0.00
3:06 am 03:06 Cloudy 45 7.2 38 3.3 77 77 NNE 14 22 30.08 1019 10 16 0.00 0.00
3:59 am 03:59 Mostly Cloudy 45 7.2 39 3.9 80 80 NNE 14 22 30.11 1020 10 16 0.00 0.00
4:59 am 04:59 Mostly Cloudy 45 7.2 39 3.9 80 80 NE 12 19 30.13 1020 10 16 0.00 0.00
5:59 am 05:59 Cloudy 45 7.2 38 3.3 77 77 NE 12 19 30.15 1021 10 16 0.00 0.00
6:59 am 06:59 Cloudy 44 6.7 38 3.3 79 79 NE 9 15 30.15 1021 7 11 0.00 0.00
7:59 am 07:59 Cloudy with Mist and Fog 44 6.7 38 3.3 79 79 NE 12 19 30.17 1022 6 10 0.00 0.00
8:45 am 08:45 Cloudy with Mist and Fog 44 6.7 39 3.9 83 83 NE 12 19 30.20 1023 5 8 0.00 0.00
8:59 am 08:59 Cloudy with Mist and Fog 44 6.7 39 3.9 83 83 NE 10 17 30.19 1022 5 8 0.00 0.00
9:59 am 09:59 Cloudy with Mist and Fog 44 6.7 39 3.9 83 83 NE 10 17 30.20 1023 6 10 0.00 0.00
10:59 am 10:59 Cloudy with Mist and Fog 45 7.2 39 3.9 80 80 NNE 13 20 30.20 1023 7 11 0.00 0.00
11:59 am 11:59 Cloudy with Mist and Fog 46 7.8 38 3.3 73 73 NE 9 15 30.16 1021 10 16 0.00 0.00
12:59 pm 12:59 Cloudy with Mist and Fog 48 8.9 39 3.9 71 71 NNE 14 22 30.14 1021 10 16 0.00 0.00
1:59 pm 13:59 Cloudy 46 7.8 39 3.9 77 77 NNE 10 17 30.13 1020 10 16 0.00 0.00
2:59 pm 14:59 Cloudy 46 7.8 39 3.9 77 77 N 13 20 30.11 1020 9 14 0.00 0.00
3:59 pm 15:59 Cloudy 46 7.8 39 3.9 77 77 NNE 13 20 30.11 1020 9 14 0.00 0.00
4:59 pm 16:59 Cloudy with Light Rain 46 7.8 40 4.4 79 79 NNE 5 7 30.13 1020 5 8 0.00 0.00
5:17 pm 17:17 Cloudy with Light Rain 45 7.2 40 4.4 83 83 NE 7 11 30.13 1020 3 4 0.04 1.02
5:29 pm 17:29 Cloudy with Light Rain 45 7.2 40 4.4 83 83 NNE 3 6 30.14 1021 3 5 0.07 1.78
5:59 pm 17:59 Cloudy with Light Rain 45 7.2 40 4.4 83 83 ENE 8 13 30.12 1020 5 8 0.10 2.54
6:06 pm 18:06 Cloudy with Light Rain 45 7.2 40 4.4 83 83 ENE 9 15 30.11 1020 4 6 0.01 0.25
6:59 pm 18:59 Mostly Cloudy 45 7.2 40 4.4 83 83 ENE 7 11 30.10 1019 10 16 0.01 0.25
7:59 pm 19:59 Cloudy 45 7.2 40 4.4 83 83 NE 5 7 30.13 1020 10 16 0.00 0.00
8:59 pm 20:59 Cloudy 46 7.8 40 4.4 79 79 NNE 5 7 30.14 1021 10 16 0.00 0.00
9:28 pm 21:28 Cloudy 46 7.8 40 4.4 79 79 NNE 6 9 30.15 1021 10 16 0.00 0.00
9:59 pm 21:59 Cloudy 46 7.8 40 4.4 79 79 NE 6 9 30.15 1021 10 16 0.00 0.00
10:59 pm 22:59 Cloudy 46 7.8 40 4.4 79 79 ENE 5 7 30.13 1020 10 16 0.00 0.00
11:59 pm 23:59 Mostly Cloudy 46 7.8 40 4.4 79 79 N 5 7 30.15 1021 10 16 0.00 0.00

Powered by AerisWeather